Regional Weather Roundup
Issued by NWS

Home | Current Version | Previous Version | Graphics & Text | Print | Product List | Glossary On
Versions: 1 2 3 4 5 6 7 8 9 10 11 12 13 14 15 16 17 18 19 20 21 22 23 24 25 26 27 28 29 30 31 32 33 34 35 36 37 38 39 40 41 42 43 44 45 46 47 48 49 50
000
ASUS45 KBOU 231707
RWRCO

WEATHER ROUNDUP FOR COLORADO
NATIONAL WEATHER SERVICE DENVER/BOULDER CO
1100 AM MDT SAT MAY 23 2015

NOTE: "FAIR" INDICATES FEW OR NO CLOUDS BELOW 12000 FEET WITH NO
SIGNIFICANT WEATHER AND/OR OBSTRUCTIONS TO VISIBILITY.

COZ001>005-013-030-031-231800-
...NORTHWEST COLORADO...

CITY           SKY/WX    TMP DP  RH WIND       PRES   REMARKS
CRAIG          PTSUNNY   55  36  48 W6G17     29.97F
HAYDEN         MOSUNNY   52  36  54 NW8       29.96F
MEEKER         MOSUNNY   57  38  48 MISG      29.96F
MOUNT WERNER   NOT AVBL
STEAMBOAT SPGS PTSUNNY   53  37  55 W3        29.96F
WALDEN         MOSUNNY   50  34  53 CALM      30.02F
$$

COZ006>008-011-231800-
...WEST CENTRAL VALLEYS...

CITY           SKY/WX    TMP DP  RH WIND       PRES   REMARKS
GRAND JUNCTION MOSUNNY   61  33  35 S9G17     29.95S
MONTROSE       CLOUDY    57  27  31 VRB7      29.99S
EAGLE          MOSUNNY   54  45  71 CALM      29.98F
RIFLE          CLOUDY    56  36  47 W20       29.95S
DELTA          PTSUNNY   61  32  32 MISG      29.96F
NUCLA          PTSUNNY   55  30  38 S14G21    30.04S
$$

COZ017>023-064>068-231800-
...SOUTHWEST COLORADO...

CITY           SKY/WX    TMP DP  RH WIND       PRES   REMARKS
DURANGO        PTSUNNY   52  31  44 S6        30.05S
CORTEZ         MOSUNNY   53  30  41 SW14      30.03S
PAGOSA SPRINGS PTSUNNY   51  20  29 S14G21    30.08F
TELLURIDE      PTSUNNY   42  26  53 SE8       30.09F
WOLF CREEK PAS NOT AVBL
$$

COZ009-010-012-014-032>034-037-058>063-231800-
...CENTRAL COLORADO...

CITY           SKY/WX    TMP DP  RH WIND       PRES   REMARKS
ASPEN          MOSUNNY   53  26  35 S14G24    29.99F
BUENA VISTA    TSTM      41  37  83 E6        30.07S
COPPER MTN     CLOUDY    34  27  75 SE7       30.17F THUNDER WCI  28
BERTHOUD PASS  TSTM      23  16  74 W8G18     30.21S VSB<1/4 WCI  14
COTTONWOOD PAS CLOUDY    39  36  87 CALM      30.11S THUNDER
GUNNISON       MOSUNNY   48  34  57 N5        30.04F
KREMMLING      PTSUNNY   50  37  62 SW5       30.02F
LEADVILLE      PTSUNNY   37  31  78 S9        30.09F
MONARCH PASS   MOSUNNY   32  28  86 MISG      30.27S THUNDER
SALIDA         CLOUDY    46  39  77 NW12      30.12S
SUNLIGHT       TSTM      36  32  87 SE5       30.15R
WILKERSON PASS CLOUDY    37  32  81 S3        30.19S THUNDER
$$

COZ069>075-231800-
...SAN LUIS VALLEY/SANGRE DE CRISTO MOUNTAINS...

CITY           SKY/WX    TMP DP  RH WIND       PRES   REMARKS
ALAMOSA        MOSUNNY   53  34  48 E9        30.02F
LA VETA PASS   CLOUDY   N/A N/A N/A MISG      30.13F
SAGUACHE       CLOUDY    50  34  53 S9        30.05F
$$

COZ035-036-038>040-231800-
...NORTHERN COLORADO FRONT RANGE...

CITY           SKY/WX    TMP DP  RH WIND       PRES   REMARKS
DENVER INTL AP PTSUNNY   56  48  74 SE3       29.99F
DMNS CITY PARK   N/A     57  48  72 NW3       29.98F
AURORA         PTSUNNY   56  46  69 SE3       30.00F
FRONT RANGE AP CLOUDY    57  50  77 E5        30.00F
ERIE MUNI ARPT CLOUDY    53  50  89 E5        30.00F
BOULDER MUN AP PTSUNNY   55  50  82 SE6       30.00S
CENTENNIAL     PTSUNNY   56  46  69 SE10      29.99F
BROOMFIELD     CLOUDY    54  48  82 E6        30.01F HAZE
FORT COLLINS   CLOUDY    54  48  82 SE9       30.02S
LONGMONT       CLOUDY    58  50  75 E6        30.02S
$$

COZ041-046-047-076>085-087-088-231800-
...PIKES PEAK/PALMER DIVIDE AND SOUTHERN FOOTHILLS...

CITY           SKY/WX    TMP DP  RH WIND       PRES   REMARKS
COLO. SPRINGS  PTSUNNY   56  46  69 W5        30.01F
A. F. ACADEMY  PTSUNNY   55  44  66 SE5       30.01F
ELLICOTT       NOT AVBL
FALCON         LGT RAIN  51  47  87 E12       30.05F
FORT CARSON    PTSUNNY   57  46  67 W3        30.00F
LIMON          CLOUDY    57  47  69 S18       30.01S
MONUMENT HILL  NOT AVBL
TRINIDAD       MOSUNNY   60  50  69 VRB3      29.97F
$$

COZ042>045-048>051-090-091-231800-
...NORTHEAST COLORADO...

CITY           SKY/WX    TMP DP  RH WIND       PRES   REMARKS
GREELEY ARPT   CLOUDY    55  48  76 E3        30.01F
AKRON          CLOUDY    57  54  89 W5        29.99S
BURLINGTON     CLOUDY    59  53  80 S18       30.01R
WRAY           CLOUDY    59  57  94 SE9       30.01S
STERLING       CLOUDY    57  55  94 CALM      29.98F
HOLYOKE        NOT AVBL
FORT MORGAN    CLOUDY    55  52  90 CALM      30.00F
$$

COZ086-089-092>099-231800-
...SOUTHEAST COLORADO...

CITY           SKY/WX    TMP DP  RH WIND       PRES   REMARKS
PUEBLO         CLOUDY    58  49  72 CALM      29.97F
LA JUNTA       MOSUNNY   63  52  67 SE16G23   29.96F
LAMAR          MOSUNNY   63  52  67 SE20G29   29.96S
SPRINGFIELD      N/A     59  51  75 SE12      29.99F
$$



USA.gov is the U.S. government's official web portal to all federal, state and local government web resources and services.